Time,TemperatureF,DewpointF,PressureIn,WindDirection,WindDirectionDegrees,WindSpeedMPH,WindSpeedGustMPH,Humidity,HourlyPrecipIn,Conditions,Clouds,dailyrainin,SoftwareType,DateUTC
2013-03-15 00:02:00,68.0,62.0,29.99,WNW,294,0.0,0.0,80,0.00,,,0.00,,2013-03-15 10:02:00,
2013-03-15 00:12:00,68.0,62.0,29.99,WNW,294,0.0,0.0,80,0.00,,,0.00,,2013-03-15 10:12:00,
2013-03-15 00:22:00,68.0,62.0,29.98,WNW,294,0.0,0.0,80,0.00,,,0.00,,2013-03-15 10:22:00,
2013-03-15 00:32:00,68.0,62.0,29.98,WNW,294,0.0,0.0,81,0.00,,,0.00,,2013-03-15 10:32:00,
2013-03-15 00:41:00,68.0,62.0,29.98,WNW,294,0.0,0.0,81,0.00,,,0.00,,2013-03-15 10:41:00,
2013-03-15 00:52:00,68.0,62.0,29.97,WNW,294,0.0,0.0,81,0.00,,,0.00,,2013-03-15 10:52:00,
2013-03-15 01:02:00,67.0,61.0,29.97,WNW,294,0.0,0.0,81,0.00,,,0.00,,2013-03-15 11:02:00,
2013-03-15 01:11:00,67.0,61.0,29.97,WNW,294,0.0,0.0,81,0.00,,,0.00,,2013-03-15 11:11:00,
2013-03-15 01:22:00,67.0,61.0,29.97,WNW,294,0.0,0.0,81,0.00,,,0.00,,2013-03-15 11:22:00,
2013-03-15 01:31:00,67.0,61.0,29.96,WNW,294,0.0,5.0,81,0.00,,,0.00,,2013-03-15 11:31:00,
2013-03-15 01:41:00,67.0,61.0,29.96,WNW,294,0.0,5.0,81,0.00,,,0.00,,2013-03-15 11:41:00,
2013-03-15 01:52:00,67.0,61.0,29.95,WNW,294,4.0,7.0,81,0.00,,,0.00,,2013-03-15 11:52:00,
2013-03-15 02:01:00,67.0,61.0,29.95,NNW,331,7.0,7.0,81,0.00,,,0.00,,2013-03-15 12:01:00,
2013-03-15 02:11:00,68.0,62.0,29.95,NW,304,5.0,9.0,80,0.00,,,0.00,,2013-03-15 12:11:00,
2013-03-15 02:21:00,68.0,62.0,29.95,NW,304,5.0,9.0,80,0.00,,,0.00,,2013-03-15 12:21:00,
2013-03-15 02:31:00,68.0,61.0,29.94,NW,316,6.0,11.0,79,0.00,,,0.00,,2013-03-15 12:31:00,
2013-03-15 02:42:00,68.0,61.0,29.94,NW,316,6.0,11.0,79,0.00,,,0.00,,2013-03-15 12:42:00,
2013-03-15 02:52:00,68.0,61.0,29.94,NW,308,5.0,8.0,78,0.00,,,0.00,,2013-03-15 12:52:00,
2013-03-15 03:01:00,68.0,61.0,29.94,WNW,300,5.0,9.0,78,0.00,,,0.00,,2013-03-15 13:01:00,
2013-03-15 03:11:00,68.0,61.0,29.94,WNW,300,5.0,9.0,78,0.00,,,0.00,,2013-03-15 13:11:00,
2013-03-15 03:22:00,68.0,61.0,29.94,NW,312,8.0,8.0,78,0.00,,,0.00,,2013-03-15 13:22:00,
2013-03-15 03:31:00,68.0,61.0,29.93,NW,310,4.0,8.0,78,0.00,,,0.00,,2013-03-15 13:31:00,
2013-03-15 03:41:00,68.0,61.0,29.93,NW,310,4.0,8.0,78,0.00,,,0.00,,2013-03-15 13:41:00,
2013-03-15 03:52:00,68.0,61.0,29.93,NW,323,6.0,9.0,79,0.00,,,0.00,,2013-03-15 13:52:00,
2013-03-15 04:01:00,68.0,61.0,29.93,WNW,302,5.0,9.0,79,0.00,,,0.00,,2013-03-15 14:01:00,
2013-03-15 04:11:00,68.0,61.0,29.93,WNW,302,5.0,9.0,79,0.00,,,0.00,,2013-03-15 14:11:00,
2013-03-15 04:21:00,68.0,61.0,29.92,NW,324,5.0,6.0,79,0.00,,,0.00,,2013-03-15 14:21:00,
2013-03-15 04:32:00,67.0,60.0,29.92,NW,312,8.0,9.0,79,0.00,,,0.00,,2013-03-15 14:32:00,
2013-03-15 04:41:00,67.0,60.0,29.92,NW,312,8.0,9.0,79,0.00,,,0.00,,2013-03-15 14:41:00,
2013-03-15 04:52:00,67.0,60.0,29.92,NW,309,5.0,6.0,79,0.00,,,0.00,,2013-03-15 14:52:00,
2013-03-15 05:01:00,67.0,60.0,29.93,NW,309,3.0,5.0,78,0.00,,,0.00,,2013-03-15 15:01:00,
2013-03-15 05:11:00,67.0,60.0,29.93,NW,309,3.0,5.0,78,0.00,,,0.00,,2013-03-15 15:11:00,
2013-03-15 05:21:00,67.0,60.0,29.93,NW,317,2.0,8.0,77,0.00,,,0.00,,2013-03-15 15:21:00,
2013-03-15 05:32:00,67.0,59.0,29.92,NW,317,0.0,5.0,76,0.00,,,0.00,,2013-03-15 15:32:00,
2013-03-15 05:42:00,67.0,59.0,29.93,NW,317,0.0,0.0,75,0.00,,,0.00,,2013-03-15 15:42:00,
2013-03-15 05:52:00,67.0,59.0,29.93,NW,317,0.0,0.0,75,0.00,,,0.00,,2013-03-15 15:52:00,
2013-03-15 06:02:00,67.0,59.0,29.93,NW,317,0.0,0.0,75,0.00,,,0.00,,2013-03-15 16:02:00,
2013-03-15 06:12:00,66.0,58.0,29.93,NW,317,0.0,0.0,75,0.00,,,0.00,,2013-03-15 16:12:00,
2013-03-15 06:22:00,66.0,58.0,29.93,NW,317,0.0,0.0,75,0.00,,,0.00,,2013-03-15 16:22:00,
2013-03-15 06:32:00,66.0,58.0,29.93,NW,317,0.0,2.0,75,0.00,,,0.00,,2013-03-15 16:32:00,
2013-03-15 06:41:00,66.0,58.0,29.93,NW,317,0.0,2.0,75,0.00,,,0.00,,2013-03-15 16:41:00,
2013-03-15 06:52:00,66.0,58.0,29.93,NW,317,3.0,6.0,76,0.00,,,0.00,,2013-03-15 16:52:00,
2013-03-15 07:01:00,66.0,58.0,29.94,WNW,300,4.0,8.0,76,0.00,,,0.00,,2013-03-15 17:01:00,
2013-03-15 07:11:00,66.0,58.0,29.94,WNW,300,4.0,8.0,76,0.00,,,0.00,,2013-03-15 17:11:00,
2013-03-15 07:22:00,66.0,58.0,29.94,WNW,300,5.0,6.0,76,0.00,,,0.00,,2013-03-15 17:22:00,
2013-03-15 07:32:00,66.0,59.0,29.95,NW,309,3.0,12.0,77,0.00,,,0.00,,2013-03-15 17:32:00,
2013-03-15 07:41:00,66.0,59.0,29.95,NW,309,3.0,12.0,77,0.00,,,0.00,,2013-03-15 17:41:00,
2013-03-15 07:52:00,67.0,60.0,29.95,NW,304,0.0,5.0,77,0.00,,,0.00,,2013-03-15 17:52:00,
2013-03-15 08:02:00,67.0,60.0,29.95,WNW,302,0.0,7.0,77,0.00,,,0.00,,2013-03-15 18:02:00,
2013-03-15 08:11:00,67.0,60.0,29.95,WNW,302,0.0,7.0,77,0.00,,,0.00,,2013-03-15 18:11:00,
2013-03-15 08:21:00,67.0,60.0,29.96,WNW,297,3.0,9.0,77,0.00,,,0.00,,2013-03-15 18:21:00,
2013-03-15 08:31:00,67.0,59.0,29.96,NW,306,6.0,10.0,76,0.00,,,0.00,,2013-03-15 18:31:00,
2013-03-15 08:41:00,67.0,59.0,29.96,NW,306,6.0,10.0,76,0.00,,,0.00,,2013-03-15 18:41:00,
2013-03-15 08:52:00,68.0,60.0,29.96,WNW,296,9.0,13.0,76,0.00,,,0.00,,2013-03-15 18:52:00,
2013-03-15 09:01:00,68.0,59.0,29.96,WNW,301,9.0,19.0,74,0.00,,,0.00,,2013-03-15 19:01:00,
2013-03-15 09:12:00,68.0,59.0,29.96,WNW,301,9.0,19.0,74,0.00,,,0.00,,2013-03-15 19:12:00,
2013-03-15 09:22:00,69.0,60.0,29.96,WSW,240,12.0,17.0,73,0.00,,,0.00,,2013-03-15 19:22:00,
2013-03-15 09:31:00,70.0,60.0,29.96,WSW,240,10.0,16.0,70,0.00,,,0.00,,2013-03-15 19:31:00,
2013-03-15 09:41:00,70.0,60.0,29.96,WSW,240,10.0,16.0,70,0.00,,,0.00,,2013-03-15 19:41:00,
2013-03-15 09:52:00,71.0,60.0,29.96,WSW,239,11.0,13.0,68,0.00,,,0.00,,2013-03-15 19:52:00,
2013-03-15 10:02:00,71.0,59.0,29.96,West,273,10.0,19.0,67,0.00,,,0.00,,2013-03-15 20:02:00,
2013-03-15 10:11:00,71.0,59.0,29.96,West,273,10.0,19.0,67,0.00,,,0.00,,2013-03-15 20:11:00,
2013-03-15 10:22:00,72.0,60.0,29.96,West,271,7.0,14.0,66,0.00,,,0.00,,2013-03-15 20:22:00,
2013-03-15 10:31:00,72.0,59.0,29.96,WSW,248,12.0,19.0,63,0.00,,,0.00,,2013-03-15 20:31:00,
2013-03-15 10:41:00,72.0,59.0,29.96,WSW,248,12.0,19.0,63,0.00,,,0.00,,2013-03-15 20:41:00,
2013-03-15 10:52:00,72.0,58.0,29.95,West,267,11.0,25.0,61,0.00,,,0.00,,2013-03-15 20:52:00,
2013-03-15 11:01:00,72.0,58.0,29.95,West,268,9.0,20.0,61,0.00,,,0.00,,2013-03-15 21:01:00,
2013-03-15 11:11:00,72.0,58.0,29.95,West,268,9.0,20.0,61,0.00,,,0.00,,2013-03-15 21:11:00,
2013-03-15 11:21:00,73.0,59.0,29.95,WSW,250,17.0,23.0,61,0.00,,,0.00,,2013-03-15 21:21:00,
2013-03-15 11:32:00,73.0,59.0,29.95,West,275,8.0,20.0,61,0.00,,,0.00,,2013-03-15 21:32:00,
2013-03-15 11:42:00,73.0,59.0,29.95,West,275,8.0,20.0,61,0.00,,,0.00,,2013-03-15 21:42:00,
2013-03-15 11:52:00,74.0,60.0,29.95,WNW,282,13.0,22.0,61,0.00,,,0.00,,2013-03-15 21:52:00,
2013-03-15 12:02:00,74.0,59.0,29.95,WSW,246,16.0,23.0,60,0.00,,,0.00,,2013-03-15 22:02:00,
2013-03-15 12:12:00,74.0,59.0,29.95,WSW,246,16.0,23.0,60,0.00,,,0.00,,2013-03-15 22:12:00,
2013-03-15 12:22:00,75.0,60.0,29.94,West,278,7.0,22.0,60,0.00,,,0.00,,2013-03-15 22:22:00,
2013-03-15 12:32:00,75.0,61.0,29.93,WSW,255,19.0,22.0,62,0.00,,,0.00,,2013-03-15 22:32:00,
2013-03-15 12:41:00,75.0,61.0,29.93,WSW,255,19.0,22.0,62,0.00,,,0.00,,2013-03-15 22:41:00,
2013-03-15 12:52:00,75.0,62.0,29.93,West,259,10.0,20.0,64,0.00,,,0.00,,2013-03-15 22:52:00,
2013-03-15 13:02:00,75.0,61.0,29.92,West,277,22.0,24.0,61,0.00,,,0.00,,2013-03-15 23:02:00,
2013-03-15 13:11:00,75.0,61.0,29.92,West,277,22.0,24.0,61,0.00,,,0.00,,2013-03-15 23:11:00,
2013-03-15 13:21:00,74.0,61.0,29.92,West,267,14.0,23.0,63,0.00,,,0.00,,2013-03-15 23:21:00,
2013-03-15 13:31:00,74.0,61.0,29.91,West,269,19.0,22.0,63,0.00,,,0.00,,2013-03-15 23:31:00,
2013-03-15 13:41:00,74.0,61.0,29.91,West,269,19.0,22.0,63,0.00,,,0.00,,2013-03-15 23:41:00,
2013-03-15 13:53:00,74.0,61.0,29.90,WSW,256,8.0,22.0,65,0.00,,,0.00,,2013-03-15 23:53:00,
2013-03-15 14:02:00,73.0,61.0,29.90,West,266,20.0,26.0,65,0.00,,,0.00,,2013-03-16 00:02:00,
2013-03-15 14:11:00,73.0,61.0,29.90,West,266,20.0,26.0,65,0.00,,,0.00,,2013-03-16 00:11:00,
2013-03-15 14:22:00,74.0,62.0,29.90,WSW,255,8.0,23.0,66,0.00,,,0.00,,2013-03-16 00:22:00,
2013-03-15 14:31:00,74.0,61.0,29.89,WSW,257,16.0,25.0,65,0.00,,,0.00,,2013-03-16 00:31:00,
2013-03-15 14:42:00,74.0,61.0,29.89,WSW,257,16.0,25.0,65,0.00,,,0.00,,2013-03-16 00:42:00,
2013-03-15 14:52:00,73.0,61.0,29.89,WNW,286,13.0,21.0,67,0.00,,,0.00,,2013-03-16 00:52:00,
2013-03-15 15:01:00,73.0,62.0,29.88,WSW,240,14.0,22.0,68,0.00,,,0.00,,2013-03-16 01:01:00,
2013-03-15 15:11:00,73.0,62.0,29.88,WSW,240,14.0,22.0,68,0.00,,,0.00,,2013-03-16 01:11:00,
2013-03-15 15:21:00,73.0,62.0,29.88,WSW,252,12.0,20.0,69,0.00,,,0.00,,2013-03-16 01:21:00,
2013-03-15 15:31:00,73.0,62.0,29.88,West,279,11.0,21.0,69,0.00,,,0.00,,2013-03-16 01:31:00,
2013-03-15 15:41:00,73.0,62.0,29.88,West,279,11.0,21.0,69,0.00,,,0.00,,2013-03-16 01:41:00,
2013-03-15 15:52:00,74.0,64.0,29.88,West,266,8.0,17.0,72,0.00,,,0.00,,2013-03-16 01:52:00,
2013-03-15 16:01:00,74.0,64.0,29.89,WSW,249,13.0,17.0,71,0.00,,,0.00,,2013-03-16 02:01:00,
2013-03-15 16:11:00,74.0,64.0,29.89,WSW,249,13.0,17.0,71,0.00,,,0.00,,2013-03-16 02:11:00,
2013-03-15 16:22:00,74.0,63.0,29.89,West,274,11.0,18.0,69,0.00,,,0.00,,2013-03-16 02:22:00,
2013-03-15 16:32:00,75.0,63.0,29.88,West,281,7.0,18.0,66,0.00,,,0.00,,2013-03-16 02:32:00,
2013-03-15 16:42:00,75.0,63.0,29.88,West,281,7.0,18.0,66,0.00,,,0.00,,2013-03-16 02:42:00,
2013-03-15 16:52:00,74.0,61.0,29.89,WNW,288,9.0,17.0,65,0.00,,,0.00,,2013-03-16 02:52:00,
2013-03-15 17:01:00,74.0,62.0,29.89,West,277,10.0,19.0,66,0.00,,,0.00,,2013-03-16 03:01:00,
2013-03-15 17:11:00,74.0,62.0,29.89,West,277,10.0,19.0,66,0.00,,,0.00,,2013-03-16 03:11:00,
2013-03-15 17:21:00,76.0,62.0,29.89,West,270,5.0,14.0,62,0.00,,,0.00,,2013-03-16 03:21:00,
2013-03-15 17:32:00,74.0,61.0,29.89,West,262,11.0,15.0,63,0.00,,,0.00,,2013-03-16 03:32:00,
2013-03-15 17:42:00,74.0,61.0,29.89,West,262,11.0,15.0,63,0.00,,,0.00,,2013-03-16 03:42:00,
2013-03-15 17:53:00,74.0,61.0,29.89,West,260,8.0,13.0,65,0.00,,,0.00,,2013-03-16 03:53:00,
2013-03-15 18:02:00,72.0,61.0,29.90,WSW,245,8.0,18.0,68,0.00,,,0.00,,2013-03-16 04:02:00,
2013-03-15 18:12:00,72.0,61.0,29.90,WSW,245,8.0,18.0,68,0.00,,,0.00,,2013-03-16 04:12:00,
2013-03-15 18:22:00,72.0,61.0,29.91,West,270,8.0,13.0,68,0.00,,,0.00,,2013-03-16 04:22:00,
2013-03-15 18:32:00,72.0,60.0,29.90,West,263,7.0,10.0,67,0.00,,,0.00,,2013-03-16 04:32:00,
2013-03-15 18:42:00,72.0,60.0,29.90,West,263,7.0,10.0,67,0.00,,,0.00,,2013-03-16 04:42:00,
2013-03-15 18:52:00,72.0,60.0,29.91,West,275,5.0,7.0,67,0.00,,,0.00,,2013-03-16 04:52:00,
2013-03-15 19:02:00,71.0,60.0,29.92,West,272,4.0,7.0,68,0.00,,,0.00,,2013-03-16 05:02:00,
2013-03-15 19:12:00,71.0,60.0,29.92,West,272,4.0,7.0,68,0.00,,,0.00,,2013-03-16 05:12:00,
2013-03-15 19:21:00,71.0,60.0,29.92,West,272,2.0,4.0,68,0.00,,,0.00,,2013-03-16 05:21:00,
2013-03-15 19:31:00,71.0,59.0,29.93,West,274,3.0,7.0,67,0.00,,,0.00,,2013-03-16 05:31:00,
2013-03-15 19:42:00,71.0,59.0,29.93,West,274,3.0,7.0,67,0.00,,,0.00,,2013-03-16 05:42:00,
2013-03-15 19:52:00,71.0,59.0,29.94,West,274,3.0,5.0,66,0.00,,,0.00,,2013-03-16 05:52:00,
2013-03-15 20:02:00,71.0,59.0,29.94,West,274,3.0,6.0,66,0.00,,,0.00,,2013-03-16 06:02:00,
2013-03-15 20:11:00,71.0,59.0,29.94,West,274,3.0,6.0,66,0.00,,,0.00,,2013-03-16 06:11:00,
2013-03-15 20:21:00,70.0,59.0,29.94,West,263,8.0,10.0,69,0.00,,,0.00,,2013-03-16 06:21:00,
2013-03-15 20:32:00,70.0,60.0,29.95,WSW,258,8.0,10.0,71,0.00,,,0.00,,2013-03-16 06:32:00,
2013-03-15 20:41:00,70.0,60.0,29.95,WSW,258,8.0,10.0,71,0.00,,,0.00,,2013-03-16 06:41:00,
2013-03-15 20:52:00,70.0,61.0,29.95,West,261,9.0,9.0,72,0.00,,,0.00,,2013-03-16 06:52:00,
2013-03-15 21:01:00,70.0,61.0,29.95,WSW,257,3.0,6.0,72,0.00,,,0.00,,2013-03-16 07:01:00,
2013-03-15 21:11:00,70.0,61.0,29.95,WSW,257,3.0,6.0,72,0.00,,,0.00,,2013-03-16 07:11:00,
2013-03-15 21:21:00,70.0,60.0,29.96,West,272,6.0,8.0,71,0.00,,,0.00,,2013-03-16 07:21:00,
2013-03-15 21:31:00,70.0,61.0,29.97,NNW,329,4.0,7.0,73,0.00,,,0.00,,2013-03-16 07:31:00,
2013-03-15 21:41:00,70.0,61.0,29.97,NNW,329,4.0,7.0,73,0.00,,,0.00,,2013-03-16 07:41:00,
2013-03-15 21:52:00,69.0,60.0,29.96,NNW,329,0.0,4.0,73,0.00,,,0.00,,2013-03-16 07:52:00,
2013-03-15 22:01:00,69.0,60.0,29.96,NNW,329,0.0,1.0,73,0.00,,,0.00,,2013-03-16 08:01:00,
2013-03-15 22:11:00,69.0,60.0,29.96,NNW,329,0.0,1.0,73,0.00,,,0.00,,2013-03-16 08:11:00,
2013-03-15 22:22:00,69.0,60.0,29.97,NNW,329,0.0,0.0,73,0.00,,,0.00,,2013-03-16 08:22:00,
2013-03-15 22:31:00,69.0,60.0,29.97,NNW,329,2.0,3.0,74,0.00,,,0.00,,2013-03-16 08:31:00,
2013-03-15 22:41:00,69.0,60.0,29.97,NNW,329,2.0,3.0,74,0.00,,,0.00,,2013-03-16 08:41:00,
2013-03-15 22:52:00,69.0,60.0,29.97,NNW,329,0.0,2.0,74,0.00,,,0.00,,2013-03-16 08:52:00,
2013-03-15 23:01:00,69.0,60.0,29.97,NNW,329,0.0,3.0,74,0.00,,,0.00,,2013-03-16 09:01:00,
2013-03-15 23:11:00,69.0,60.0,29.97,NNW,329,0.0,3.0,74,0.00,,,0.00,,2013-03-16 09:11:00,
2013-03-15 23:21:00,69.0,61.0,29.96,North,350,6.0,11.0,76,0.00,,,0.00,,2013-03-16 09:21:00,
2013-03-15 23:32:00,69.0,61.0,29.95,NNW,336,3.0,8.0,76,0.00,,,0.00,,2013-03-16 09:32:00,
2013-03-15 23:42:00,69.0,61.0,29.95,NNW,336,3.0,8.0,76,0.00,,,0.00,,2013-03-16 09:42:00,
2013-03-15 23:52:00,69.0,62.0,29.96,North,0,8.0,13.0,78,0.00,,,0.00,,2013-03-16 09:52:00,